contact:dominique.lefevre@mio.osupytheas.fr, maurice.libes@osupytheas.fr, didier.mallarino@osupytheas.fr
Project:EMSO http://www.emso-fr.org/EMSO-France
Depth: 2436.0 m
Title:EMSO Ligure Ouest : Data MII capteur MICROCAT
DateTime_Computer,Latitude,Longitude,Temperature,Conductivity,Pressure,DateTime_Instrument
DateTime_Computer,Latitude,Longitude,degC,S m-1,dbar,DateTime_Instrument
2023-07-28T00:01:26Z,42.805,6.029,13.3026,4.60087,2470.74,2023-7-28T02:03:44Z
2023-07-28T00:04:29Z,42.805,6.029,13.3029,4.60086,2470.717,2023-7-28T02:06:47Z
2023-07-28T00:07:32Z,42.805,6.029,13.3028,4.60087,2470.717,2023-7-28T02:09:50Z
2023-07-28T00:10:35Z,42.805,6.029,13.3026,4.60086,2470.717,2023-7-28T02:12:53Z
2023-07-28T00:13:39Z,42.805,6.029,13.3025,4.60086,2470.693,2023-7-28T02:15:56Z
2023-07-28T00:16:42Z,42.805,6.029,13.3026,4.60087,2470.693,2023-7-28T02:18:59Z
2023-07-28T00:19:45Z,42.805,6.029,13.3024,4.60088,2470.693,2023-7-28T02:22:02Z
2023-07-28T00:22:48Z,42.805,6.029,13.3026,4.60087,2470.717,2023-7-28T02:25:06Z
2023-07-28T00:25:51Z,42.805,6.029,13.3025,4.60087,2470.73,2023-7-28T02:28:09Z
2023-07-28T00:28:54Z,42.805,6.029,13.3028,4.60089,2470.754,2023-7-28T02:31:12Z
2023-07-28T00:31:57Z,42.805,6.029,13.3025,4.60087,2470.754,2023-7-28T02:34:15Z
2023-07-28T00:35:00Z,42.805,6.029,13.3026,4.60087,2470.754,2023-7-28T02:37:18Z
2023-07-28T00:38:03Z,42.805,6.029,13.3022,4.60090,2470.717,2023-7-28T02:40:21Z
2023-07-28T00:41:06Z,42.805,6.029,13.3026,4.60089,2470.717,2023-7-28T02:43:24Z
2023-07-28T00:44:09Z,42.805,6.029,13.3028,4.60088,2470.74,2023-7-28T02:46:27Z
2023-07-28T00:47:12Z,42.805,6.029,13.3027,4.60089,2470.74,2023-7-28T02:49:30Z
2023-07-28T00:50:16Z,42.805,6.029,13.3026,4.60087,2470.73,2023-7-28T02:52:33Z
2023-07-28T00:53:19Z,42.805,6.029,13.3025,4.60089,2470.717,2023-7-28T02:55:36Z
2023-07-28T00:56:22Z,42.805,6.029,13.3027,4.60087,2470.74,2023-7-28T02:58:39Z
2023-07-28T00:59:25Z,42.805,6.029,13.3027,4.60088,2470.763,2023-7-28T03:01:42Z
2023-07-28T01:02:28Z,42.805,6.029,13.3026,4.60087,2470.763,2023-7-28T03:04:46Z
2023-07-28T01:05:31Z,42.805,6.029,13.3029,4.60087,2470.717,2023-7-28T03:07:49Z
2023-07-28T01:08:34Z,42.805,6.029,13.3026,4.60086,2470.74,2023-7-28T03:10:52Z
2023-07-28T01:11:37Z,42.805,6.029,13.3024,4.60087,2470.763,2023-7-28T03:13:55Z
2023-07-28T01:14:40Z,42.805,6.029,13.3026,4.60090,2470.717,2023-7-28T03:16:58Z
2023-07-28T01:17:43Z,42.805,6.029,13.3026,4.60092,2470.74,2023-7-28T03:20:01Z
2023-07-28T01:20:46Z,42.805,6.029,13.3025,4.60087,2470.754,2023-7-28T03:23:04Z
2023-07-28T01:23:49Z,42.805,6.029,13.3026,4.60087,2470.763,2023-7-28T03:26:07Z
2023-07-28T01:26:52Z,42.805,6.029,13.3026,4.60087,2470.777,2023-7-28T03:29:10Z
2023-07-28T01:29:56Z,42.805,6.029,13.3028,4.60094,2470.74,2023-7-28T03:32:13Z
2023-07-28T01:32:59Z,42.805,6.029,13.3027,4.60087,2470.74,2023-7-28T03:35:16Z
2023-07-28T01:36:02Z,42.805,6.029,13.3026,4.60087,2470.754,2023-7-28T03:38:19Z
2023-07-28T01:39:05Z,42.805,6.029,13.3026,4.60087,2470.73,2023-7-28T03:41:23Z
2023-07-28T01:42:08Z,42.805,6.029,13.3027,4.60087,2470.754,2023-7-28T03:44:26Z
2023-07-28T01:45:11Z,42.805,6.029,13.3024,4.60087,2470.74,2023-7-28T03:47:29Z
2023-07-28T01:48:14Z,42.805,6.029,13.3028,4.60087,2470.74,2023-7-28T03:50:32Z
2023-07-28T01:51:17Z,42.805,6.029,13.3024,4.60087,2470.763,2023-7-28T03:53:35Z
2023-07-28T01:54:20Z,42.805,6.029,13.3024,4.60088,2470.777,2023-7-28T03:56:38Z
2023-07-28T01:57:23Z,42.805,6.029,13.3026,4.60087,2470.707,2023-7-28T03:59:41Z
2023-07-28T02:00:26Z,42.805,6.029,13.3021,4.60087,2470.754,2023-7-28T04:02:44Z
2023-07-28T02:03:29Z,42.805,6.029,13.3029,4.60087,2470.754,2023-7-28T04:05:47Z
2023-07-28T02:06:32Z,42.805,6.029,13.3025,4.60088,2470.74,2023-7-28T04:08:50Z
2023-07-28T02:09:36Z,42.805,6.029,13.3024,4.60087,2470.777,2023-7-28T04:11:53Z
2023-07-28T02:12:39Z,42.805,6.029,13.3026,4.60087,2470.717,2023-7-28T04:14:56Z
2023-07-28T02:15:42Z,42.805,6.029,13.3025,4.60086,2470.763,2023-7-28T04:18:00Z
2023-07-28T02:18:45Z,42.805,6.029,13.3026,4.60088,2470.763,2023-7-28T04:21:03Z
2023-07-28T02:21:48Z,42.805,6.029,13.3028,4.60087,2470.74,2023-7-28T04:24:06Z
2023-07-28T02:24:51Z,42.805,6.029,13.3024,4.60086,2470.74,2023-7-28T04:27:09Z
2023-07-28T02:27:54Z,42.805,6.029,13.3026,4.60086,2470.717,2023-7-28T04:30:12Z
2023-07-28T02:30:57Z,42.805,6.029,13.3027,4.60087,2470.74,2023-7-28T04:33:15Z
2023-07-28T02:34:00Z,42.805,6.029,13.3029,4.60090,2470.717,2023-7-28T04:36:18Z
2023-07-28T02:37:03Z,42.805,6.029,13.3024,4.60087,2470.75,2023-7-28T04:39:21Z
2023-07-28T02:40:06Z,42.805,6.029,13.3026,4.60087,2470.754,2023-7-28T04:42:24Z
2023-07-28T02:43:10Z,42.805,6.029,13.3026,4.60087,2470.74,2023-7-28T04:45:27Z
2023-07-28T02:46:13Z,42.805,6.029,13.3024,4.60090,2470.74,2023-7-28T04:48:30Z
2023-07-28T02:49:16Z,42.805,6.029,13.3026,4.60087,2470.73,2023-7-28T04:51:33Z
2023-07-28T02:52:19Z,42.805,6.029,13.3026,4.60087,2470.754,2023-7-28T04:54:37Z
2023-07-28T02:55:22Z,42.805,6.029,13.3027,4.60086,2470.754,2023-7-28T04:57:40Z
2023-07-28T02:58:25Z,42.805,6.029,13.3028,4.60087,2470.8,2023-7-28T05:00:43Z
2023-07-28T03:01:28Z,42.805,6.029,13.3029,4.60087,2470.74,2023-7-28T05:03:46Z
2023-07-28T03:04:31Z,42.805,6.029,13.3024,4.60086,2470.754,2023-7-28T05:06:49Z
2023-07-28T03:07:34Z,42.805,6.029,13.3026,4.60087,2470.763,2023-7-28T05:09:52Z
2023-07-28T03:10:37Z,42.805,6.029,13.3025,4.60088,2470.777,2023-7-28T05:12:55Z
2023-07-28T03:13:40Z,42.805,6.029,13.3027,4.60087,2470.73,2023-7-28T05:15:58Z
2023-07-28T03:16:43Z,42.805,6.029,13.3028,4.60088,2470.73,2023-7-28T05:19:01Z
2023-07-28T03:19:46Z,42.805,6.029,13.3024,4.60086,2470.754,2023-7-28T05:22:04Z
2023-07-28T03:22:50Z,42.805,6.029,13.3024,4.60087,2470.763,2023-7-28T05:25:07Z
2023-07-28T03:25:53Z,42.805,6.029,13.3030,4.60087,2470.717,2023-7-28T05:28:10Z
2023-07-28T03:28:56Z,42.805,6.029,13.3026,4.60087,2470.763,2023-7-28T05:31:13Z
2023-07-28T03:31:59Z,42.805,6.029,13.3027,4.60087,2470.763,2023-7-28T05:34:17Z
2023-07-28T03:35:02Z,42.805,6.029,13.3029,4.60087,2470.763,2023-7-28T05:37:20Z
2023-07-28T03:38:05Z,42.805,6.029,13.3026,4.60092,2470.754,2023-7-28T05:40:23Z
2023-07-28T03:41:08Z,42.805,6.029,13.3029,4.60087,2470.754,2023-7-28T05:43:26Z
2023-07-28T03:44:11Z,42.805,6.029,13.3024,4.60089,2470.777,2023-7-28T05:46:29Z
2023-07-28T03:47:14Z,42.805,6.029,13.3026,4.60087,2470.73,2023-7-28T05:49:32Z
2023-07-28T03:50:17Z,42.805,6.029,13.3030,4.60088,2470.754,2023-7-28T05:52:35Z
2023-07-28T03:53:20Z,42.805,6.029,13.3024,4.60090,2470.74,2023-7-28T05:55:38Z
2023-07-28T03:56:23Z,42.805,6.029,13.3026,4.60086,2470.717,2023-7-28T05:58:41Z
2023-07-28T03:59:26Z,42.805,6.029,13.3029,4.60087,2470.717,2023-7-28T06:01:44Z
2023-07-28T04:02:30Z,42.805,6.029,13.3029,4.60087,2470.717,2023-7-28T06:04:47Z
2023-07-28T04:05:33Z,42.805,6.029,13.3026,4.60087,2470.74,2023-7-28T06:07:50Z
2023-07-28T04:08:36Z,42.805,6.029,13.3024,4.60090,2470.717,2023-7-28T06:10:53Z
2023-07-28T04:11:39Z,42.805,6.029,13.3027,4.60087,2470.717,2023-7-28T06:13:57Z
2023-07-28T04:14:42Z,42.805,6.029,13.3031,4.60087,2470.717,2023-7-28T06:17:00Z
2023-07-28T04:17:45Z,42.805,6.029,13.3026,4.60087,2470.707,2023-7-28T06:20:03Z
2023-07-28T04:20:48Z,42.805,6.029,13.3031,4.60087,2470.73,2023-7-28T06:23:06Z
2023-07-28T04:23:51Z,42.805,6.029,13.3029,4.60086,2470.717,2023-7-28T06:26:09Z
2023-07-28T04:26:54Z,42.805,6.029,13.3026,4.60086,2470.73,2023-7-28T06:29:12Z
2023-07-28T04:29:57Z,42.805,6.029,13.3028,4.60089,2470.73,2023-7-28T06:32:15Z
2023-07-28T04:33:00Z,42.805,6.029,13.3028,4.60090,2470.693,2023-7-28T06:35:18Z
2023-07-28T04:36:03Z,42.805,6.029,13.3027,4.60090,2470.74,2023-7-28T06:38:21Z
2023-07-28T04:39:07Z,42.805,6.029,13.3029,4.60089,2470.707,2023-7-28T06:41:24Z
2023-07-28T04:42:10Z,42.805,6.029,13.3027,4.60088,2470.73,2023-7-28T06:44:27Z
2023-07-28T04:45:13Z,42.805,6.029,13.3025,4.60087,2470.74,2023-7-28T06:47:31Z
2023-07-28T04:48:16Z,42.805,6.029,13.3027,4.60087,2470.754,2023-7-28T06:50:34Z
2023-07-28T04:51:19Z,42.805,6.029,13.3031,4.60087,2470.717,2023-7-28T06:53:37Z
2023-07-28T04:54:22Z,42.805,6.029,13.3029,4.60090,2470.717,2023-7-28T06:56:40Z
2023-07-28T04:57:25Z,42.805,6.029,13.3029,4.60086,2470.73,2023-7-28T06:59:43Z
2023-07-28T05:00:28Z,42.805,6.029,13.3025,4.60087,2470.74,2023-7-28T07:02:46Z
2023-07-28T05:03:31Z,42.805,6.029,13.3025,4.60087,2470.717,2023-7-28T07:05:49Z
2023-07-28T05:06:34Z,42.805,6.029,13.3031,4.60088,2470.74,2023-7-28T07:08:52Z
2023-07-28T05:09:37Z,42.805,6.029,13.3030,4.60087,2470.717,2023-7-28T07:11:55Z
2023-07-28T05:12:40Z,42.805,6.029,13.3022,4.60090,2470.717,2023-7-28T07:14:58Z
2023-07-28T05:15:44Z,42.805,6.029,13.3029,4.60087,2470.777,2023-7-28T07:18:01Z
2023-07-28T05:18:47Z,42.805,6.029,13.3026,4.60086,2470.754,2023-7-28T07:21:04Z
2023-07-28T05:21:50Z,42.805,6.029,13.3029,4.60086,2470.717,2023-7-28T07:24:07Z
2023-07-28T05:24:53Z,42.805,6.029,13.3026,4.60087,2470.74,2023-7-28T07:27:11Z
2023-07-28T05:27:56Z,42.805,6.029,13.3026,4.60088,2470.754,2023-7-28T07:30:14Z
2023-07-28T05:30:59Z,42.805,6.029,13.3025,4.60087,2470.73,2023-7-28T07:33:17Z
2023-07-28T05:34:02Z,42.805,6.029,13.3028,4.60086,2470.693,2023-7-28T07:36:20Z
2023-07-28T05:37:05Z,42.805,6.029,13.3024,4.60089,2470.707,2023-7-28T07:39:23Z
2023-07-28T05:40:08Z,42.805,6.029,13.3026,4.60091,2470.679,2023-7-28T07:42:26Z
2023-07-28T05:43:11Z,42.805,6.029,13.3026,4.60089,2470.717,2023-7-28T07:45:29Z
2023-07-28T05:46:14Z,42.805,6.029,13.3028,4.60086,2470.73,2023-7-28T07:48:32Z
2023-07-28T05:49:17Z,42.805,6.029,13.3029,4.60087,2470.693,2023-7-28T07:51:35Z
2023-07-28T05:52:20Z,42.805,6.029,13.3029,4.60089,2470.717,2023-7-28T07:54:38Z
2023-07-28T05:55:24Z,42.805,6.029,13.3029,4.60086,2470.693,2023-7-28T07:57:41Z
2023-07-28T05:58:27Z,42.805,6.029,13.3026,4.60086,2470.73,2023-7-28T08:00:44Z
2023-07-28T06:01:30Z,42.805,6.029,13.3027,4.60086,2470.707,2023-7-28T08:03:48Z
2023-07-28T06:04:33Z,42.805,6.029,13.3026,4.60087,2470.73,2023-7-28T08:06:51Z
2023-07-28T06:07:36Z,42.805,6.029,13.3026,4.60087,2470.693,2023-7-28T08:09:54Z
2023-07-28T06:10:39Z,42.805,6.029,13.3024,4.60086,2470.693,2023-7-28T08:12:57Z
2023-07-28T06:13:42Z,42.805,6.029,13.3026,4.60087,2470.693,2023-7-28T08:16:00Z
2023-07-28T06:16:45Z,42.805,6.029,13.3030,4.60087,2470.693,2023-7-28T08:19:03Z
2023-07-28T06:19:48Z,42.805,6.029,13.3025,4.60087,2470.73,2023-7-28T08:22:06Z
2023-07-28T06:22:51Z,42.805,6.029,13.3025,4.60088,2470.693,2023-7-28T08:25:09Z
2023-07-28T06:25:54Z,42.805,6.029,13.3027,4.60087,2470.707,2023-7-28T08:28:12Z
2023-07-28T06:28:57Z,42.805,6.029,13.3023,4.60087,2470.777,2023-7-28T08:31:15Z
2023-07-28T06:32:00Z,42.805,6.029,13.3024,4.60087,2470.693,2023-7-28T08:34:17Z
2023-07-28T06:35:03Z,42.805,6.029,13.3028,4.60086,2470.693,2023-7-28T08:37:21Z
2023-07-28T06:38:06Z,42.805,6.029,13.3028,4.60086,2470.67,2023-7-28T08:40:24Z
2023-07-28T06:41:09Z,42.805,6.029,13.3030,4.60086,2470.693,2023-7-28T08:43:27Z
2023-07-28T06:44:12Z,42.805,6.029,13.3027,4.60088,2470.707,2023-7-28T08:46:30Z
2023-07-28T06:47:15Z,42.805,6.029,13.3023,4.60086,2470.693,2023-7-28T08:49:33Z
2023-07-28T06:50:18Z,42.805,6.029,13.3031,4.60087,2470.707,2023-7-28T08:52:36Z
2023-07-28T06:53:21Z,42.805,6.029,13.3026,4.60087,2470.707,2023-7-28T08:55:39Z
2023-07-28T06:56:24Z,42.805,6.029,13.3026,4.60087,2470.693,2023-7-28T08:58:42Z
2023-07-28T06:59:27Z,42.805,6.029,13.3026,4.60087,2470.707,2023-7-28T09:01:45Z
2023-07-28T07:02:30Z,42.805,6.029,13.3025,4.60089,2470.693,2023-7-28T09:04:48Z
2023-07-28T07:05:34Z,42.805,6.029,13.3026,4.60086,2470.693,2023-7-28T09:07:51Z
2023-07-28T07:08:37Z,42.805,6.029,13.3027,4.60089,2470.67,2023-7-28T09:10:54Z
2023-07-28T07:11:40Z,42.805,6.029,13.3024,4.60086,2470.693,2023-7-28T09:13:58Z
2023-07-28T07:14:43Z,42.805,6.029,13.3026,4.60087,2470.67,2023-7-28T09:17:01Z
2023-07-28T07:17:46Z,42.805,6.029,13.3024,4.60086,2470.67,2023-7-28T09:20:04Z
2023-07-28T07:20:49Z,42.805,6.029,13.3024,4.60092,2470.693,2023-7-28T09:23:07Z
2023-07-28T07:23:52Z,42.805,6.029,13.3026,4.60087,2470.67,2023-7-28T09:26:10Z
2023-07-28T07:26:55Z,42.805,6.029,13.3028,4.60087,2470.679,2023-7-28T09:29:13Z
2023-07-28T07:29:58Z,42.805,6.029,13.3029,4.60085,2470.684,2023-7-28T09:32:16Z
2023-07-28T07:33:01Z,42.805,6.029,13.3027,4.60086,2470.67,2023-7-28T09:35:19Z
2023-07-28T07:36:04Z,42.805,6.029,13.3026,4.60086,2470.693,2023-7-28T09:38:22Z
2023-07-28T07:39:07Z,42.805,6.029,13.3028,4.60086,2470.67,2023-7-28T09:41:25Z
2023-07-28T07:42:11Z,42.805,6.029,13.3026,4.60087,2470.67,2023-7-28T09:44:28Z
2023-07-28T07:45:14Z,42.805,6.029,13.3028,4.60087,2470.633,2023-7-28T09:47:31Z
2023-07-28T07:48:17Z,42.805,6.029,13.3025,4.60086,2470.707,2023-7-28T09:50:34Z
2023-07-28T07:51:20Z,42.805,6.029,13.3029,4.60088,2470.693,2023-7-28T09:53:38Z
2023-07-28T07:54:23Z,42.805,6.029,13.3027,4.60088,2470.684,2023-7-28T09:56:41Z
2023-07-28T07:57:26Z,42.805,6.029,13.3021,4.60089,2470.67,2023-7-28T09:59:44Z
2023-07-28T08:00:29Z,42.805,6.029,13.3025,4.60088,2470.646,2023-7-28T10:02:47Z
2023-07-28T08:03:32Z,42.805,6.029,13.3028,4.60086,2470.707,2023-7-28T10:05:50Z
2023-07-28T08:06:35Z,42.805,6.029,13.3026,4.60087,2470.637,2023-7-28T10:08:53Z
2023-07-28T08:09:38Z,42.805,6.029,13.3026,4.60086,2470.646,2023-7-28T10:11:56Z
2023-07-28T08:12:41Z,42.805,6.029,13.3028,4.60087,2470.67,2023-7-28T10:14:59Z
2023-07-28T08:15:44Z,42.805,6.029,13.3023,4.60087,2470.646,2023-7-28T10:18:02Z
2023-07-28T08:18:48Z,42.805,6.029,13.3028,4.60090,2470.637,2023-7-28T10:21:05Z
2023-07-28T08:21:51Z,42.805,6.029,13.3025,4.60087,2470.684,2023-7-28T10:24:08Z
2023-07-28T08:24:54Z,42.805,6.029,13.3025,4.60088,2470.67,2023-7-28T10:27:12Z
2023-07-28T08:27:57Z,42.805,6.029,13.3029,4.60087,2470.661,2023-7-28T10:30:15Z
2023-07-28T08:30:58Z,42.805,6.029,13.3026,4.60087,2470.637,2023-7-28T10:33:16Z
2023-07-28T08:34:01Z,42.805,6.029,13.3020,4.60088,2470.624,2023-7-28T10:36:19Z
2023-07-28T08:37:04Z,42.805,6.029,13.3026,4.60087,2470.67,2023-7-28T10:39:22Z
2023-07-28T08:40:08Z,42.805,6.029,13.3026,4.60086,2470.646,2023-7-28T10:42:25Z
2023-07-28T08:43:11Z,42.805,6.029,13.3024,4.60087,2470.661,2023-7-28T10:45:28Z
2023-07-28T08:46:14Z,42.805,6.029,13.3023,4.60086,2470.646,2023-7-28T10:48:32Z
2023-07-28T08:49:17Z,42.805,6.029,13.3026,4.60087,2470.67,2023-7-28T10:51:35Z
2023-07-28T08:52:20Z,42.805,6.029,13.3024,4.60086,2470.646,2023-7-28T10:54:38Z
2023-07-28T08:55:23Z,42.805,6.029,13.3028,4.60086,2470.684,2023-7-28T10:57:41Z
2023-07-28T08:58:26Z,42.805,6.029,13.3027,4.60086,2470.646,2023-7-28T11:00:44Z
2023-07-28T09:01:29Z,42.805,6.029,13.3024,4.60087,2470.646,2023-7-28T11:03:47Z
2023-07-28T09:04:32Z,42.805,6.029,13.3030,4.60089,2470.646,2023-7-28T11:06:50Z
2023-07-28T09:07:35Z,42.805,6.029,13.3029,4.60086,2470.624,2023-7-28T11:09:53Z
2023-07-28T09:10:38Z,42.805,6.029,13.3024,4.60089,2470.646,2023-7-28T11:12:56Z
2023-07-28T09:13:42Z,42.805,6.029,13.3026,4.60087,2470.646,2023-7-28T11:15:59Z
2023-07-28T09:16:45Z,42.805,6.029,13.3025,4.60085,2470.661,2023-7-28T11:19:02Z
2023-07-28T09:19:48Z,42.805,6.029,13.3023,4.60087,2470.624,2023-7-28T11:22:06Z
2023-07-28T09:22:51Z,42.805,6.029,13.3020,4.60087,2470.646,2023-7-28T11:25:09Z
2023-07-28T09:25:54Z,42.805,6.029,13.3029,4.60087,2470.646,2023-7-28T11:28:12Z
2023-07-28T09:28:57Z,42.805,6.029,13.3026,4.60086,2470.661,2023-7-28T11:31:15Z
2023-07-28T09:32:00Z,42.805,6.029,13.3021,4.60085,2470.661,2023-7-28T11:34:18Z
2023-07-28T09:35:03Z,42.805,6.029,13.3027,4.60087,2470.693,2023-7-28T11:37:21Z
2023-07-28T09:38:06Z,42.805,6.029,13.3024,4.60087,2470.646,2023-7-28T11:40:24Z
2023-07-28T09:41:09Z,42.805,6.029,13.3028,4.60087,2470.646,2023-7-28T11:43:27Z
2023-07-28T09:44:12Z,42.805,6.029,13.3025,4.60086,2470.637,2023-7-28T11:46:30Z
2023-07-28T09:47:15Z,42.805,6.029,13.3028,4.60087,2470.67,2023-7-28T11:49:33Z
2023-07-28T09:50:19Z,42.805,6.029,13.3026,4.60086,2470.661,2023-7-28T11:52:36Z
2023-07-28T09:53:22Z,42.805,6.029,13.3024,4.60086,2470.637,2023-7-28T11:55:39Z
2023-07-28T09:56:25Z,42.805,6.029,13.3026,4.60085,2470.693,2023-7-28T11:58:43Z
2023-07-28T09:59:28Z,42.805,6.029,13.3024,4.60087,2470.646,2023-7-28T12:01:46Z
2023-07-28T10:02:31Z,42.805,6.029,13.3026,4.60086,2470.661,2023-7-28T12:04:49Z
2023-07-28T10:05:34Z,42.805,6.029,13.3029,4.60085,2470.646,2023-7-28T12:07:52Z
2023-07-28T10:08:37Z,42.805,6.029,13.3024,4.60086,2470.646,2023-7-28T12:10:55Z
2023-07-28T10:11:40Z,42.805,6.029,13.3024,4.60086,2470.707,2023-7-28T12:13:58Z
2023-07-28T10:14:43Z,42.805,6.029,13.3027,4.60088,2470.646,2023-7-28T12:17:01Z
2023-07-28T10:17:46Z,42.805,6.029,13.3026,4.60090,2470.646,2023-7-28T12:20:04Z
2023-07-28T10:20:49Z,42.805,6.029,13.3024,4.60088,2470.661,2023-7-28T12:23:07Z
2023-07-28T10:23:52Z,42.805,6.029,13.3026,4.60086,2470.707,2023-7-28T12:26:10Z
2023-07-28T10:26:56Z,42.805,6.029,13.3025,4.60086,2470.646,2023-7-28T12:29:13Z
2023-07-28T10:29:59Z,42.805,6.029,13.3024,4.60089,2470.646,2023-7-28T12:32:16Z
2023-07-28T10:33:02Z,42.805,6.029,13.3024,4.60086,2470.67,2023-7-28T12:35:20Z
2023-07-28T10:36:05Z,42.805,6.029,13.3026,4.60088,2470.624,2023-7-28T12:38:23Z
2023-07-28T10:39:08Z,42.805,6.029,13.3026,4.60087,2470.624,2023-7-28T12:41:26Z
2023-07-28T10:42:11Z,42.805,6.029,13.3025,4.60087,2470.67,2023-7-28T12:44:29Z
2023-07-28T10:45:14Z,42.805,6.029,13.3027,4.60087,2470.67,2023-7-28T12:47:32Z
2023-07-28T10:48:17Z,42.805,6.029,13.3026,4.60086,2470.67,2023-7-28T12:50:35Z
2023-07-28T10:51:20Z,42.805,6.029,13.3031,4.60087,2470.646,2023-7-28T12:53:38Z
2023-07-28T10:54:23Z,42.805,6.029,13.3023,4.60087,2470.67,2023-7-28T12:56:41Z
2023-07-28T10:57:26Z,42.805,6.029,13.3026,4.60086,2470.661,2023-7-28T12:59:44Z
2023-07-28T11:00:30Z,42.805,6.029,13.3027,4.60086,2470.684,2023-7-28T13:02:47Z
2023-07-28T11:03:33Z,42.805,6.029,13.3027,4.60087,2470.646,2023-7-28T13:05:50Z
2023-07-28T11:06:36Z,42.805,6.029,13.3027,4.60088,2470.646,2023-7-28T13:08:53Z
2023-07-28T11:09:39Z,42.805,6.029,13.3029,4.60087,2470.67,2023-7-28T13:11:57Z
2023-07-28T11:12:42Z,42.805,6.029,13.3026,4.60088,2470.67,2023-7-28T13:15:00Z
2023-07-28T11:15:45Z,42.805,6.029,13.3023,4.60087,2470.693,2023-7-28T13:18:03Z
2023-07-28T11:18:48Z,42.805,6.029,13.3026,4.60087,2470.661,2023-7-28T13:21:06Z
2023-07-28T11:21:51Z,42.805,6.029,13.3026,4.60087,2470.693,2023-7-28T13:24:09Z
2023-07-28T11:24:54Z,42.805,6.029,13.3024,4.60087,2470.684,2023-7-28T13:27:12Z
2023-07-28T11:27:57Z,42.805,6.029,13.3024,4.60087,2470.67,2023-7-28T13:30:15Z
2023-07-28T11:31:00Z,42.805,6.029,13.3028,4.60087,2470.67,2023-7-28T13:33:18Z
2023-07-28T11:34:03Z,42.805,6.029,13.3024,4.60087,2470.646,2023-7-28T13:36:21Z
2023-07-28T11:37:07Z,42.805,6.029,13.3031,4.60090,2470.693,2023-7-28T13:39:24Z
2023-07-28T11:40:10Z,42.805,6.029,13.3021,4.60085,2470.684,2023-7-28T13:42:27Z
2023-07-28T11:43:13Z,42.805,6.029,13.3026,4.60087,2470.684,2023-7-28T13:45:31Z
2023-07-28T11:46:16Z,42.805,6.029,13.3024,4.60088,2470.67,2023-7-28T13:48:34Z
2023-07-28T11:49:19Z,42.805,6.029,13.3026,4.60087,2470.707,2023-7-28T13:51:37Z
2023-07-28T11:52:22Z,42.805,6.029,13.3029,4.60087,2470.693,2023-7-28T13:54:40Z
2023-07-28T11:55:25Z,42.805,6.029,13.3027,4.60089,2470.656,2023-7-28T13:57:43Z
2023-07-28T11:58:28Z,42.805,6.029,13.3026,4.60087,2470.67,2023-7-28T14:00:46Z
2023-07-28T12:01:31Z,42.805,6.029,13.3024,4.60087,2470.693,2023-7-28T14:03:49Z
2023-07-28T12:04:34Z,42.805,6.029,13.3025,4.60087,2470.693,2023-7-28T14:06:52Z
2023-07-28T12:07:37Z,42.805,6.029,13.3029,4.60087,2470.73,2023-7-28T14:09:55Z
2023-07-28T12:10:41Z,42.805,6.029,13.3024,4.60089,2470.707,2023-7-28T14:12:58Z
2023-07-28T12:13:44Z,42.805,6.029,13.3027,4.60087,2470.693,2023-7-28T14:16:01Z
2023-07-28T12:16:47Z,42.805,6.029,13.3023,4.60087,2470.684,2023-7-28T14:19:04Z
2023-07-28T12:19:50Z,42.805,6.029,13.3024,4.60088,2470.693,2023-7-28T14:22:08Z
2023-07-28T12:22:53Z,42.805,6.029,13.3029,4.60087,2470.693,2023-7-28T14:25:11Z
2023-07-28T12:25:56Z,42.805,6.029,13.3029,4.60087,2470.693,2023-7-28T14:28:14Z
2023-07-28T12:28:59Z,42.805,6.029,13.3030,4.60087,2470.707,2023-7-28T14:31:17Z
2023-07-28T12:32:02Z,42.805,6.029,13.3024,4.60089,2470.67,2023-7-28T14:34:20Z
2023-07-28T12:35:05Z,42.805,6.029,13.3024,4.60092,2470.693,2023-7-28T14:37:23Z
2023-07-28T12:38:08Z,42.805,6.029,13.3026,4.60088,2470.717,2023-7-28T14:40:26Z
2023-07-28T12:41:11Z,42.805,6.029,13.3027,4.60087,2470.754,2023-7-28T14:43:29Z
2023-07-28T12:44:14Z,42.805,6.029,13.3029,4.60089,2470.717,2023-7-28T14:46:32Z
2023-07-28T12:47:18Z,42.805,6.029,13.3029,4.60092,2470.73,2023-7-28T14:49:35Z
2023-07-28T12:50:21Z,42.805,6.029,13.3031,4.60087,2470.754,2023-7-28T14:52:38Z
2023-07-28T12:53:24Z,42.805,6.029,13.3027,4.60090,2470.693,2023-7-28T14:55:42Z
2023-07-28T12:56:27Z,42.805,6.029,13.3024,4.60087,2470.717,2023-7-28T14:58:45Z
2023-07-28T12:59:30Z,42.805,6.029,13.3032,4.60087,2470.717,2023-7-28T15:01:48Z
2023-07-28T13:02:33Z,42.805,6.029,13.3023,4.60090,2470.717,2023-7-28T15:04:51Z
2023-07-28T13:05:36Z,42.805,6.029,13.3026,4.60089,2470.717,2023-7-28T15:07:54Z
2023-07-28T13:08:39Z,42.805,6.029,13.3031,4.60088,2470.717,2023-7-28T15:10:57Z
2023-07-28T13:11:42Z,42.805,6.029,13.3029,4.60087,2470.726,2023-7-28T15:14:00Z
2023-07-28T13:14:45Z,42.805,6.029,13.3026,4.60087,2470.717,2023-7-28T15:17:03Z
2023-07-28T13:17:48Z,42.805,6.029,13.3028,4.60089,2470.693,2023-7-28T15:20:06Z
2023-07-28T13:20:51Z,42.805,6.029,13.3028,4.60086,2470.717,2023-7-28T15:23:09Z
2023-07-28T13:23:55Z,42.805,6.029,13.3022,4.60087,2470.717,2023-7-28T15:26:12Z
2023-07-28T13:26:58Z,42.805,6.029,13.3027,4.60087,2470.763,2023-7-28T15:29:15Z
2023-07-28T13:30:01Z,42.805,6.029,13.3026,4.60087,2470.74,2023-7-28T15:32:18Z
2023-07-28T13:33:04Z,42.805,6.029,13.3024,4.60087,2470.74,2023-7-28T15:35:22Z
2023-07-28T13:36:07Z,42.805,6.029,13.3025,4.60087,2470.763,2023-7-28T15:38:25Z
2023-07-28T13:39:10Z,42.805,6.029,13.3026,4.60087,2470.754,2023-7-28T15:41:28Z
2023-07-28T13:42:13Z,42.805,6.029,13.3027,4.60086,2470.74,2023-7-28T15:44:31Z
2023-07-28T13:45:16Z,42.805,6.029,13.3023,4.60087,2470.763,2023-7-28T15:47:34Z
2023-07-28T13:48:19Z,42.805,6.029,13.3026,4.60087,2470.74,2023-7-28T15:50:37Z
2023-07-28T13:51:22Z,42.805,6.029,13.3031,4.60087,2470.754,2023-7-28T15:53:40Z
2023-07-28T13:54:25Z,42.805,6.029,13.3028,4.60088,2470.8,2023-7-28T15:56:43Z
2023-07-28T13:57:28Z,42.805,6.029,13.3025,4.60087,2470.763,2023-7-28T15:59:46Z
2023-07-28T14:00:32Z,42.805,6.029,13.3026,4.60097,2470.74,2023-7-28T16:02:49Z
2023-07-28T14:03:35Z,42.805,6.029,13.3024,4.60089,2470.763,2023-7-28T16:05:52Z
2023-07-28T14:06:38Z,42.805,6.029,13.3025,4.60085,2470.777,2023-7-28T16:08:56Z
2023-07-28T14:09:41Z,42.805,6.029,13.3026,4.60086,2470.777,2023-7-28T16:11:59Z
2023-07-28T14:12:44Z,42.805,6.029,13.3025,4.60087,2470.763,2023-7-28T16:15:02Z
2023-07-28T14:15:47Z,42.805,6.029,13.3027,4.60087,2470.763,2023-7-28T16:18:05Z
2023-07-28T14:18:50Z,42.805,6.029,13.3028,4.60086,2470.777,2023-7-28T16:21:08Z
2023-07-28T14:21:53Z,42.805,6.029,13.3028,4.60087,2470.8,2023-7-28T16:24:11Z
2023-07-28T14:24:56Z,42.805,6.029,13.3026,4.60088,2470.754,2023-7-28T16:27:14Z
2023-07-28T14:27:59Z,42.805,6.029,13.3024,4.60087,2470.763,2023-7-28T16:30:17Z
2023-07-28T14:31:04Z,42.805,6.029,13.3020,4.60090,2470.763,2023-7-28T16:33:21Z
2023-07-28T14:34:07Z,42.805,6.029,13.3026,4.60086,2470.763,2023-7-28T16:36:24Z
2023-07-28T14:37:10Z,42.805,6.029,13.3028,4.60087,2470.763,2023-7-28T16:39:28Z
2023-07-28T14:40:13Z,42.805,6.029,13.3023,4.60089,2470.74,2023-7-28T16:42:31Z
2023-07-28T14:43:16Z,42.805,6.029,13.3026,4.60089,2470.787,2023-7-28T16:45:34Z
2023-07-28T14:46:19Z,42.805,6.029,13.3029,4.60087,2470.754,2023-7-28T16:48:37Z
2023-07-28T14:49:22Z,42.805,6.029,13.3027,4.60097,2470.777,2023-7-28T16:51:40Z
2023-07-28T14:52:25Z,42.805,6.029,13.3025,4.60087,2470.754,2023-7-28T16:54:43Z
2023-07-28T14:55:28Z,42.805,6.029,13.3026,4.60087,2470.787,2023-7-28T16:57:46Z
2023-07-28T14:58:31Z,42.805,6.029,13.3029,4.60087,2470.777,2023-7-28T17:00:49Z
2023-07-28T15:01:34Z,42.805,6.029,13.3028,4.60087,2470.74,2023-7-28T17:03:52Z
2023-07-28T15:04:38Z,42.805,6.029,13.3030,4.60087,2470.787,2023-7-28T17:06:55Z
2023-07-28T15:07:41Z,42.805,6.029,13.3029,4.60087,2470.787,2023-7-28T17:09:58Z
2023-07-28T15:10:44Z,42.805,6.029,13.3026,4.60087,2470.8,2023-7-28T17:13:02Z
2023-07-28T15:13:47Z,42.805,6.029,13.3028,4.60087,2470.787,2023-7-28T17:16:05Z